COSMOS 457

Satellite information

Favourite Embed

Satellite Type and Status

PAYLOADIN ORBIT

Key statistics

Satellite COSMOS 457 at a glance.

Uptime

19709

Days in orbit

Revolutions

≈ 13.2

Per day

Orbit

LEO

Low Earth Orbit

Inclination

74.0

Latest

Satellite identification and parameters

Extended collection of information and parameters for COSMOS 457.

Object identification

Identified? True

Debris? False

Object name: COSMOS 457

International designator: 1971-099A

Object number (NORAD): 5614

Object ID (CCSDS): 5614

Country: COMMONWEALTH OF INDEPENDENT STATES (CIS)

Current information (Y/N): Y

RCS size: LARGE

Orbital parameters

Period: 109.414 minutes

Inclination: 74.0363 deg

SMA: 7577.76 km

Apoapsis: 1217.869 km

Periapsis: 1181.381 km

RAAN: 346.1692 deg

Eccentricy: 0.0024076

Argument of periapsis: 293.2909 deg

Mean anomaly: 240.1819 deg

Mean motion: 13.16107838 rev/day

Mean motion (dot): -0.00000175 rev/day2

B* drag term: -0.00041068 1/REarth

Two-line elements (TLE)

Creation date: Nov. 4, 2025, 11:56 p.m.

Reference frame: TEME

Reference center: EARTH

Epoch: Nov. 4, 2025, 8:30 p.m. UTC

TLE line 0: 0 COSMOS 457

TLE line 1: 1 5614U 71099A 25308.85433272 -.00000175 00000-0 -41068-3 0 9991

TLE line 2: 2 5614 74.0363 346.1692 0024076 293.2909 240.1819 13.16107838592048

Live tracking on map

Real-time ground track for satellite COSMOS 457.

In-orbit conjunctions

A list of the most updated potential collisions computed for object COSMOS 457.

Target Orbit TCA Probability of collision Miss distance Type
DELTA 1 DEB SSO 2025-10-24 07:36:28 0.000453254 221.0 (m) DEBRIS

Associated space launch

The Sfera or Geoid series were the first soviet geodetic satellites to improve the accuracy of maps. The development of the satellites started in 1965 at NPO-PM.

COSMOS 457 was lifted into orbit during the mission ‘Kosmos-3M | Sfera 7’, on board a Kosmos-3M space rocket.

The launch took place on Nov. 20, 1971, 6 p.m. from 132/2.

For more information about the launch, click the button.

Launch to space Kosmos-3M | Sfera 7
Kosmos-3M | Sfera 7

Agency: N/A

Status: Launch Successful

Launch date: Nov. 20, 1971, 6 p.m. UTC

Rocket: Kosmos-3M

Launch pad: 132/2

Location: Plesetsk Cosmodrome, Russian Federation

...

Latest news about this satellite

There are no fresh news available about this satellite. Check back as we update our databases every day.


Newsletter sign-up

Weekly statistics, charts and insights to help you stay on top of the space industry.